GFSMA_700_temp_000.txt.gz
Temp
8 8 8 8 8 8 8 8 8 8 8 8 8 8 8 8 8 8 8 8 8 8 8 8 8 8 8 8 8 8 8 8 8 8 7 7 7 7 7 7 7 7 7
8 8 8 8 8 8 9 8 8 8 8 8 8 9 9 9 9 9 8 8 8 8 8 8 8 8 8 8 8 8 8 8 8 8 8 8 7 7 7 7 7 7 7
8 8 8 8 8 9 9 9 8 9 9 9 9 9 9 9 9 9 9 9 8 8 8 8 8 8 8 8 8 8 8 8 8 7 7 8 8 7 7 7 7 8 8
8 8 8 8 8 8 9 9 8 9 9 9 9 9 9 9 9 9 9 9 8 8 8 8 8 8 8 8 8 8 8 8 8 8 8 7 8 8 7 7 8 7 7
8 8 8 9 9 8 9 9 8 10 10 9 9 9 9 9 9 9 9 9 9 8 8 8 8 7 7 8 8 8 8 7 8 7 8 8 8 8 8 8 8 8 8
9 9 9 9 9 9 9 9 10 10 10 9 9 9 9 9 8 8 8 8 8 8 8 8 8 8 7 7 7 7 7 8 7 7 7 7 8 7 8 8 8 8 8
9 9 9 9 9 9 10 10 10 10 10 10 9 8 9 8 8 8 7 7 8 8 8 8 7 7 8 7 7 7 7 7 7 7 7 7 7 7 8 8 8 8 8
9 10 10 10 10 10 10 10 10 9 9 9 9 8 5 5 7 8 8 8 8 8 7 7 7 7 7 7 7 7 8 7 7 7 7 7 7 7 7 8 8 8 8
10 10 10 10 10 10 10 10 10 9 9 9 9 8 6 5 5 6 7 7 7 7 7 7 7 7 7 7 7 7 7 7 7 7 7 7 7 7 7 7 8 8 8
11 11 11 11 11 11 10 10 10 9 8 8 8 8 8 8 5 4 3 6 6 6 7 7 7 7 7 7 7 7 7 7 7 7 7 7 7 7 8 7 7 7 8
11 10 10 10 10 11 11 10 10 9 8 8 7 7 7 7 7 6 5 3 4 6 6 6 6 6 7 6 7 7 7 7 6 6 7 7 7 7 7 7 7 7 7
10 10 10 10 10 10 10 10 10 9 8 8 7 7 7 6 5 6 6 6 6 5 6 5 5 5 6 6 6 7 7 7 7 7 7 6 7 7 7 7 7 7 7
10 10 10 10 10 10 10 10 10 9 8 8 7 7 7 6 6 6 6 5 3 3 5 5 5 5 5 5 5 6 6 7 7 7 7 7 7 7 7 7 7 7 7
10 10 10 9 9 9 9 10 10 9 9 8 7 7 6 6 6 5 5 4 4 2 2 2 2 6 5 5 5 5 5 6 6 6 6 6 7 7 7 7 6 7 7
10 10 9 9 9 9 9 9 9 9 9 8 7 7 6 5 4 4 4 5 5 5 4 2 2 2 6 4 4 4 4 4 4 5 5 5 6 6 7 7 7 7 7
9 9 9 9 8 8 8 8 9 9 8 8 7 7 6 5 4 3 4 4 4 5 5 4 5 5 5 4 3 4 3 4 4 4 5 5 5 6 6 6 7 7 7
9 9 8 9 8 8 8 8 8 7 8 7 7 6 6 5 4 3 2 4 4 4 4 5 4 4 5 5 4 3 3 4 4 4 4 4 4 4 5 6 6 7 7
9 8 8 7 7 7 7 7 7 7 7 7 6 6 5 5 4 4 4 4 3 3 3 3 4 4 4 4 4 4 3 4 4 4 4 4 5 5 5 5 6 6 7
8 9 10 8 6 7 7 7 6 6 6 6 5 5 4 4 4 3 3 3 2 2 2 2 3 3 4 4 3 3 3 3 4 4 5 5 5 5 5 5 5 6 6
9 10 10 7 5 5 6 6 5 5 5 5 5 4 4 4 3 3 3 3 3 3 2 2 2 2 1 3 1 1 1 0 0 1 4 4 4 5 5 6 6 6 6
10 10 9 8 7 6 6 5 5 5 5 5 4 4 3 3 3 3 3 3 3 3 2 2 1 1 2 2 2 1 1 0 2 2 2 3 4 5 5 5 5 5 6
11 10 9 8 7 6 6 5 4 4 4 4 4 3 3 3 3 3 3 3 3 3 2 2 2 2 3 2 2 2 2 2 2 2 2 3 3 5 5 5 5 5 6
11 10 10 7 6 5 5 5 4 4 4 4 4 3 4 3 3 3 2 2 3 3 2 2 2 2 2 2 2 2 2 2 2 2 3 4 3 4 4 4 4 3 5
11 9 9 7 5 6 5 5 4 4 3 3 3 3 3 3 3 2 2 2 3 2 2 2 2 2 2 1 1 1 2 2 2 2 3 4 2 4 4 4 3 2 4
10 10 9 8 7 6 5 4 4 3 3 3 3 3 2 2 2 2 2 2 2 2 2 2 2 2 1 0 1 2 2 1 2 2 3 2 2 3 2 2 3 2 3
10 9 8 8 7 5 5 4 4 3 3 3 3 3 2 2 2 2 2 2 2 2 2 2 1 1 1 1 2 2 1 2 2 3 2 1 2 2 2 3 4 2 3

GFSMA_700_temp_003.txt.gz
Temp
7 8 8 8 8 8 8 8 8 8 8 8 8 8 8 8 8 9 8 8 8 8 8 8 8 8 8 8 8 8 8 8 8 8 8 8 8 8 8 7 7 7 7
8 8 8 8 8 9 8 8 8 8 8 8 9 9 9 9 9 9 8 8 8 8 8 8 7 8 8 8 8 8 8 8 8 8 8 8 8 8 8 8 7 7 7
9 9 8 8 8 8 8 8 8 8 9 8 9 9 9 10 9 9 9 9 9 8 9 8 8 7 7 7 8 8 8 8 8 8 8 8 8 8 8 8 8 8 8
9 9 8 8 8 9 8 8 8 8 9 9 9 9 10 9 9 9 10 9 9 9 8 8 8 8 8 7 7 7 8 8 8 8 8 8 8 8 8 8 8 8 8
9 8 8 8 8 8 9 9 8 9 10 10 9 9 9 10 9 7 9 9 9 8 7 9 8 8 7 8 8 7 7 7 8 7 7 7 8 8 8 8 8 8 8
9 9 8 8 9 9 9 9 9 10 10 10 9 8 10 9 9 9 9 9 8 8 7 8 8 8 8 7 7 7 7 7 7 7 7 8 7 8 8 8 8 8 8
10 9 9 10 9 9 10 10 10 10 10 9 8 5 6 8 8 8 8 8 8 8 8 8 8 8 8 8 8 7 7 7 7 7 8 7 8 7 7 8 8 8 8
10 10 10 10 10 9 10 10 10 9 8 9 8 8 6 5 5 6 7 8 8 7 7 8 7 7 8 8 7 8 8 7 7 7 7 8 7 7 8 7 7 8 8
11 10 10 10 10 10 10 10 10 10 9 8 8 8 5 6 5 5 5 8 8 8 8 7 7 7 6 7 8 7 7 8 8 8 7 7 7 7 7 8 7 7 8
11 11 10 10 10 10 11 10 10 10 9 8 8 9 8 7 6 5 5 4 6 7 7 7 7 7 6 7 7 7 7 7 7 7 7 7 7 7 7 7 7 7 7
11 10 10 10 10 10 10 10 10 10 9 9 8 7 8 8 7 6 4 4 3 3 7 7 7 6 7 6 6 7 7 7 7 7 7 7 7 7 7 7 7 7 7
10 10 10 10 10 10 10 10 10 10 9 9 8 8 7 5 4 3 4 4 3 3 3 5 6 7 6 6 6 7 7 7 7 7 7 7 7 7 7 7 8 8 8
10 11 10 10 10 9 9 9 9 9 9 9 8 8 8 6 6 4 4 3 4 3 3 3 2 6 6 6 6 6 6 6 7 7 7 7 7 7 7 7 8 8 8
10 11 10 9 9 9 9 9 9 9 9 8 8 8 7 7 6 3 3 3 3 3 3 3 3 2 3 6 6 6 5 6 6 6 6 6 6 7 7 7 7 7 7
11 10 10 10 10 10 9 8 8 8 8 9 8 8 7 7 5 3 3 3 3 4 3 3 2 2 2 2 3 4 4 5 6 5 5 5 6 6 6 6 7 7 7
11 11 10 10 10 10 10 9 8 8 8 8 7 7 7 6 6 5 4 3 3 4 2 2 2 2 3 4 2 3 4 4 4 5 5 5 5 5 5 6 6 6 7
11 11 11 10 10 9 8 8 8 7 7 7 6 6 6 6 6 5 3 3 3 3 5 5 4 4 4 4 4 4 3 4 4 4 5 5 4 4 4 4 5 6 6
11 11 11 10 10 9 8 7 7 7 7 7 7 6 6 6 5 5 5 5 4 4 5 6 6 5 5 4 4 4 4 5 3 3 4 4 5 5 5 4 4 5 5
12 12 11 11 10 9 8 8 7 6 6 6 6 6 5 5 4 4 4 3 3 3 3 3 4 3 3 3 3 3 3 2 2 2 3 5 5 6 5 4 4 5 5
12 12 11 11 10 9 8 7 7 5 5 5 5 5 4 4 4 4 4 4 3 3 3 1 1 2 3 3 1 2 2 2 1 1 2 3 3 4 5 5 5 5 5
12 11 11 11 9 9 8 7 6 6 5 5 4 4 4 4 4 4 4 4 4 3 3 2 2 2 1 1 2 2 2 2 2 1 3 3 3 4 4 4 5 5 5
11 11 11 10 11 9 7 6 5 5 5 5 4 4 4 4 3 4 3 3 4 3 2 2 3 3 3 2 2 2 2 3 3 2 3 3 3 3 4 4 5 5 5
12 12 11 11 11 10 8 6 6 5 4 4 4 3 4 3 3 3 3 3 3 2 2 2 3 3 2 2 2 2 2 2 2 3 3 3 3 3 4 4 5 5 5
12 12 12 11 10 9 7 6 5 5 4 4 4 3 3 3 3 3 2 2 3 2 3 3 3 3 2 2 2 2 2 2 3 3 3 3 3 3 4 4 5 5 4
12 12 11 11 10 9 8 7 5 5 4 4 3 3 3 3 3 3 2 3 2 3 3 3 3 2 2 2 1 1 2 2 3 3 3 3 2 3 3 4 4 4 2
12 12 11 10 9 8 7 7 6 5 4 3 3 3 3 3 3 2 3 2 3 3 3 2 2 2 2 2 2 2 3 3 3 3 2 2 2 2 2 2 3 3 2

GFSMA_700_temp_006.txt.gz
Temp
10 8 8 7 8 8 9 9 8 9 8 9 9 10 9 9 9 9 9 9 8 8 8 8 7 8 8 8 8 8 8 8 8 8 8 8 8 8 8 7 7 7 7
9 8 9 9 9 9 9 9 9 8 9 8 8 10 10 10 10 9 9 9 9 8 8 8 8 8 7 8 8 8 7 8 8 8 8 8 8 7 8 8 7 7 8
9 9 10 9 9 9 8 8 8 8 8 8 8 9 10 10 10 10 10 10 10 9 9 8 8 8 8 7 7 7 7 7 8 8 8 8 8 8 8 8 8 8 8
9 9 9 10 8 9 8 8 9 8 7 9 9 9 9 10 9 10 10 9 9 10 9 9 8 7 7 7 8 7 7 7 7 8 8 8 7 7 8 8 8 8 8
10 9 9 10 8 9 8 9 8 8 9 10 9 7 8 9 8 10 9 10 9 9 10 9 9 8 8 7 7 7 7 7 7 8 7 7 7 8 8 8 8 8 8
10 10 9 10 9 9 9 9 9 9 10 10 9 9 8 7 8 8 9 10 9 8 8 8 9 9 8 8 7 7 7 7 7 7 7 7 7 7 8 8 8 8 8
10 9 10 10 10 10 11 10 10 10 10 10 8 7 8 5 6 7 7 8 8 9 8 7 8 9 8 8 8 7 7 7 7 7 7 7 7 7 7 8 8 8 8
10 11 10 10 11 11 11 10 10 10 10 10 8 7 6 5 6 5 6 7 7 7 8 8 7 8 8 8 8 8 7 7 7 7 7 7 7 7 7 7 8 8 8
11 11 11 11 10 10 11 11 11 10 10 10 9 7 6 5 6 5 4 6 7 7 7 7 8 7 7 8 8 7 8 7 8 8 8 7 7 7 7 7 7 7 7
11 11 11 11 11 10 10 11 11 10 10 10 9 8 8 6 6 5 4 5 4 8 7 7 8 7 7 8 7 8 7 7 7 7 7 8 8 8 8 7 7 8 8
11 11 11 11 10 10 10 10 10 10 10 10 9 9 9 7 6 5 4 4 4 4 8 7 7 7 8 7 7 7 7 7 7 7 7 7 7 7 7 8 8 7 7
11 11 11 11 11 10 10 10 10 9 10 10 9 8 8 8 5 6 6 5 4 3 3 4 6 7 6 7 8 7 7 7 7 7 7 7 7 7 7 7 7 8 8
11 11 11 11 10 10 10 10 10 9 9 9 9 9 9 8 7 5 6 5 5 3 3 3 2 4 6 7 7 7 7 7 7 7 7 7 7 7 7 7 7 7 8
11 12 11 11 11 11 10 9 9 9 9 8 8 9 8 8 7 6 4 6 5 4 3 3 3 2 3 6 7 7 7 7 6 6 6 7 7 7 7 7 7 7 7
12 12 11 11 11 11 10 9 9 8 8 8 8 8 8 8 8 7 6 5 4 4 4 3 2 3 3 3 4 5 5 5 5 6 6 7 6 6 6 6 7 7 7
12 12 11 11 11 11 11 10 9 8 8 8 8 8 8 8 7 6 5 4 3 4 5 4 3 3 3 4 3 4 4 5 5 5 5 6 6 5 5 5 6 7 7
12 12 11 11 11 11 10 10 9 9 9 7 7 7 7 7 6 6 6 4 4 4 4 4 4 4 4 4 4 4 4 4 4 5 5 5 5 5 5 5 5 5 6
12 12 11 11 11 11 10 10 9 9 8 8 7 7 7 7 6 5 6 5 5 5 5 5 5 5 5 5 4 5 5 5 3 4 4 4 5 5 5 5 5 5 6
13 12 12 11 11 11 11 10 10 9 8 7 6 6 6 6 6 5 5 5 5 4 4 4 4 4 5 5 4 4 4 4 3 3 3 4 5 5 5 5 5 5 4
13 12 12 11 11 11 10 10 9 9 8 7 6 5 5 5 5 4 4 4 4 4 4 3 3 4 3 4 4 4 3 3 3 3 3 3 4 4 3 3 4 5 5
13 12 12 11 11 10 10 9 9 8 7 7 6 5 5 5 5 4 4 4 3 4 4 4 3 3 3 3 3 2 2 2 2 2 2 2 3 3 3 3 3 3 4
13 12 12 11 11 11 11 10 9 8 7 6 6 5 5 5 4 4 3 3 3 3 3 3 3 2 3 3 3 3 3 3 4 3 2 3 3 3 3 3 3 3 4
13 13 12 12 12 11 11 10 8 7 6 6 6 5 4 4 3 3 3 3 3 3 3 3 3 3 3 3 2 2 2 2 2 3 2 3 3 4 3 3 3 3 4
13 13 12 12 12 11 11 10 8 6 6 6 5 4 5 4 4 3 3 3 3 3 3 3 3 3 3 2 2 2 3 2 3 3 3 4 3 4 3 3 4 4 3
13 12 12 12 11 11 11 9 7 6 6 6 5 5 5 4 4 4 3 3 3 3 2 3 2 3 3 2 2 2 1 1 2 3 3 3 3 4 3 3 3 2 2
12 12 12 12 10 10 9 8 7 6 6 6 6 5 5 4 4 3 3 3 3 3 3 2 2 2 2 2 1 1 2 2 3 3 2 2 2 2 3 2 2 2 2

GFSMA_700_temp_009.txt.gz
Temp
9 9 8 9 10 9 9 9 9 8 8 9 10 10 10 10 9 9 9 8 8 7 8 7 8 8 8 8 8 8 8 8 8 8 8 8 7 7 7 7 7 7 7
9 9 8 8 9 9 7 8 8 8 7 8 9 10 10 10 10 9 10 9 9 8 8 7 8 8 7 8 8 8 8 8 8 8 8 8 7 7 7 7 7 7 7
9 9 9 9 9 8 9 9 9 9 9 9 9 10 10 10 10 10 10 9 9 9 8 8 7 8 8 8 8 7 7 7 7 8 8 8 8 7 7 7 7 7 7
9 9 9 9 9 8 9 10 9 9 10 10 10 10 10 10 10 10 9 10 10 9 9 9 8 8 8 8 8 7 7 7 8 8 8 7 7 7 7 7 7 7 7
9 9 9 9 9 9 10 9 10 10 10 10 10 10 9 9 9 10 9 9 9 10 9 9 9 8 8 8 8 7 7 7 7 7 8 7 7 7 7 7 7 7 7
10 10 9 10 9 10 10 10 11 11 10 10 10 10 8 9 8 8 8 8 9 9 10 10 9 9 8 8 8 7 7 7 7 7 7 7 7 7 7 7 7 7 7
10 11 10 10 10 11 11 11 11 11 11 10 10 10 8 6 6 6 7 8 7 7 8 9 9 8 8 8 7 8 7 7 7 7 7 7 6 6 7 7 7 7 7
10 11 11 11 11 11 11 11 11 11 11 10 10 9 6 5 5 5 6 6 7 8 7 8 8 9 8 8 8 7 8 7 7 7 7 7 7 7 7 7 7 7 7
11 11 11 11 11 11 11 10 10 11 11 10 10 9 7 6 6 5 6 6 7 6 7 8 7 8 8 8 8 8 8 8 7 7 7 7 7 7 7 7 7 7 7
12 12 11 11 11 11 10 10 10 10 10 10 10 9 8 7 5 6 5 5 7 6 7 7 7 7 8 8 7 7 7 8 8 7 7 7 7 7 7 7 7 7 7
12 11 11 11 11 10 11 10 10 10 10 10 10 10 9 8 7 6 6 6 4 6 8 6 7 8 7 7 7 7 7 7 7 7 7 7 7 7 7 7 7 7 7
12 11 11 11 11 10 10 10 10 10 9 9 9 9 10 9 8 8 7 6 6 6 5 7 7 6 6 8 7 7 7 7 7 7 7 7 7 7 7 7 7 7 7
12 12 11 11 11 10 10 10 10 10 9 8 8 9 9 9 9 8 7 6 5 4 4 4 5 7 7 7 7 7 7 7 7 7 7 7 7 7 7 7 7 7 7
12 12 11 11 11 11 11 10 10 10 9 8 8 8 8 8 8 8 8 8 6 6 5 5 5 6 6 7 7 6 6 6 6 6 6 7 7 7 6 6 6 6 6
12 12 11 11 11 11 11 10 10 10 9 9 8 8 8 8 8 8 7 7 6 6 4 4 4 4 5 5 5 6 6 6 6 6 6 6 6 6 6 6 6 6 6
12 12 12 11 11 11 11 10 10 10 10 9 9 8 7 7 7 7 7 6 6 6 5 4 4 4 4 4 4 4 5 5 6 6 6 6 6 6 6 5 6 6 6
13 13 12 11 11 11 11 10 10 10 10 9 8 8 7 7 6 7 6 6 5 5 5 4 4 4 4 4 4 4 5 5 5 6 6 6 5 5 5 5 5 5 5
13 13 12 11 11 11 11 10 10 10 9 9 8 7 7 6 6 6 6 6 5 5 4 4 3 3 4 4 5 5 5 6 6 5 5 5 5 4 5 4 5 5 5
13 13 12 12 12 11 11 11 10 10 9 8 8 7 6 6 5 6 6 5 4 4 4 4 4 3 3 4 4 3 4 4 3 3 4 4 3 3 3 4 5 5 5
13 13 13 12 12 11 11 11 10 9 9 8 7 7 6 5 5 5 5 4 4 4 4 3 3 4 4 3 3 3 4 4 4 4 4 4 3 3 3 3 4 4 3
13 13 13 13 12 12 11 11 10 10 9 8 7 7 6 5 5 4 4 4 4 3 3 3 3 4 4 4 3 3 4 4 4 4 4 3 3 3 2 3 3 3 3
13 13 13 12 12 11 11 11 10 10 8 6 7 7 6 5 5 4 4 4 3 3 3 3 3 3 3 3 2 3 3 3 4 4 4 4 3 3 3 3 3 3 3
13 13 13 12 11 11 11 11 11 10 9 7 6 6 6 5 5 4 3 3 2 3 3 2 3 3 3 3 3 3 3 3 3 3 3 3 3 3 3 3 3 3 3
13 13 12 12 12 11 11 11 11 10 9 7 6 6 5 5 4 4 4 3 3 3 3 2 3 2 3 2 2 2 3 3 3 3 2 3 3 3 4 3 3 3 3
13 11 11 12 12 11 11 10 10 9 8 5 6 5 5 4 5 4 3 4 4 3 3 3 3 3 2 2 2 2 2 3 3 2 2 2 3 3 4 4 3 3 3
12 11 12 12 11 11 10 10 9 8 8 7 6 6 5 5 4 4 4 3 3 3 2 3 2 3 2 2 2 1 2 2 2 2 2 2 3 3 4 4 3 2 2

GFSMA_700_temp_015.txt.gz
Temp
9 9 8 8 8 8 8 9 9 8 8 8 7 8 9 10 9 9 9 8 8 8 8 8 8 7 8 8 8 8 8 8 8 8 8 8 8 7 7 7 7 7 7
9 9 8 8 8 8 9 9 9 8 7 7 7 8 9 10 10 9 9 9 8 8 8 8 8 8 8 8 8 8 8 8 8 8 8 8 7 7 7 7 7 7 7
9 9 9 8 9 9 8 8 9 8 8 5 6 8 9 9 9 9 9 9 8 8 8 8 8 8 8 8 8 8 8 8 8 8 8 8 8 8 7 7 7 7 7
10 9 9 9 9 10 9 9 9 9 9 7 8 8 9 9 9 9 9 9 9 8 8 8 8 7 8 7 7 7 7 7 7 7 7 7 7 7 7 7 7 7 7
9 9 9 10 9 9 9 10 10 9 10 9 9 8 8 8 8 8 9 9 9 9 8 8 7 7 7 7 7 7 7 7 7 7 7 7 7 7 7 7 7 7 7
9 9 9 9 9 9 10 10 10 10 10 10 9 9 8 7 7 7 8 8 9 9 9 8 8 8 7 7 7 7 7 7 7 7 7 7 7 7 7 7 7 7 7
9 9 9 10 10 10 10 10 10 10 10 10 9 8 8 7 7 6 7 7 7 8 8 8 8 8 7 7 7 7 7 7 7 7 7 7 6 6 6 6 7 7 7
10 10 10 10 10 10 10 10 10 10 10 10 9 9 8 8 7 7 7 7 7 7 7 7 7 8 8 7 6 6 6 7 6 6 6 6 6 6 6 6 6 6 7
10 10 11 11 11 10 10 9 9 9 9 9 9 9 9 8 8 8 8 7 7 7 7 7 7 7 7 7 7 7 6 6 7 6 6 6 6 6 6 6 6 6 6
10 11 11 11 11 10 10 10 9 9 8 8 9 9 9 9 8 8 8 8 7 6 6 6 6 7 7 6 6 6 6 6 6 6 6 6 6 6 6 6 6 6 7
11 11 11 11 10 10 10 9 9 9 9 8 8 8 8 9 9 8 8 8 7 7 6 6 6 5 6 6 6 6 6 6 6 6 6 6 6 6 6 6 6 6 6
12 12 11 11 10 10 10 10 10 9 9 9 9 9 8 8 8 8 8 7 7 7 7 7 6 5 5 5 5 5 5 6 6 6 6 6 6 6 6 6 6 6 6
12 12 11 11 11 10 10 10 10 10 9 9 9 9 8 8 8 7 7 7 7 7 6 7 6 6 5 5 4 5 5 6 6 6 6 6 5 5 5 5 6 6 6
12 12 11 11 11 11 10 10 10 10 10 9 9 9 9 8 7 7 7 7 7 7 6 6 6 6 6 6 5 5 5 5 5 5 5 5 6 5 5 5 5 5 5
12 12 12 11 11 11 10 10 10 10 9 9 9 8 8 8 7 7 7 6 6 6 6 6 6 5 5 5 5 5 5 6 6 6 6 5 5 5 5 5 5 5 5
12 12 12 12 12 11 11 10 10 10 9 9 9 9 8 8 7 7 7 6 6 6 6 6 6 5 5 4 5 5 5 5 5 5 5 5 5 5 4 4 4 4 5
13 12 12 12 12 11 11 10 10 10 9 9 9 8 8 8 7 7 7 6 6 5 5 5 5 4 4 4 5 5 4 5 4 5 5 5 5 5 5 4 4 4 4
13 12 12 12 12 11 11 11 10 10 9 9 8 8 8 7 7 7 6 6 6 5 5 5 4 4 4 4 4 4 4 4 4 4 4 4 4 4 4 4 4 4 4
13 13 12 12 12 12 11 11 10 10 9 9 9 8 7 7 7 7 6 6 5 5 4 4 4 3 3 3 3 3 3 4 4 4 4 3 3 3 4 4 4 4 4
13 13 13 12 12 12 11 11 10 10 9 9 8 8 7 7 7 6 6 5 5 5 4 4 4 4 4 3 3 3 4 4 4 4 3 3 3 3 4 4 4 4 4
14 13 13 13 12 12 12 11 10 10 9 9 8 8 7 6 6 6 6 5 5 5 4 4 3 3 3 2 3 3 3 3 3 3 3 3 3 4 3 3 3 3 3
14 14 13 13 13 13 12 12 10 9 9 9 9 8 8 7 7 5 5 5 5 4 4 4 3 3 3 3 3 3 3 3 3 3 3 3 3 3 3 3 3 3 3
15 14 14 13 13 13 12 12 12 11 10 10 8 8 8 8 6 5 4 5 4 4 4 4 4 3 3 3 2 2 3 3 2 2 2 3 2 2 2 2 2 2 2
15 15 14 13 13 13 12 12 12 11 10 10 9 8 8 8 6 5 4 4 4 4 4 4 3 3 3 3 2 2 3 3 3 2 2 2 2 2 2 1 1 1 2
15 15 14 13 13 13 12 11 11 11 10 9 8 9 8 8 7 6 5 4 4 4 4 4 3 3 3 3 3 2 2 2 2 2 2 2 1 1 1 1 1 1 2
15 14 14 13 13 13 12 12 11 12 11 10 9 9 8 8 7 6 6 4 4 4 3 3 3 3 3 2 3 2 2 2 2 2 2 1 1 1 1 2 2 2 2

GFSMA_700_temp_021.txt.gz
Temp
8 8 8 8 8 8 8 8 8 8 8 7 8 9 8 9 9 9 9 8 8 7 7 7 7 8 8 8 8 8 7 7 7 7 7 7 7 7 7 7 7 7 7
8 8 8 8 8 8 8 7 8 8 8 8 9 8 9 9 9 9 9 8 8 8 7 7 7 7 8 8 8 7 7 8 7 7 7 7 7 7 7 7 7 7 7
8 8 8 9 8 8 8 9 8 8 8 9 7 7 8 9 9 9 9 9 8 8 8 7 7 7 7 7 8 8 8 8 8 8 7 7 7 7 7 7 7 7 7
9 9 9 8 8 8 9 9 8 8 8 8 8 7 7 8 9 9 9 9 8 8 8 8 7 7 7 7 7 7 7 8 7 7 7 7 7 7 7 7 7 7 7
9 9 8 8 9 9 9 9 9 9 9 8 8 8 7 7 8 8 8 9 9 8 8 8 7 7 7 7 7 7 7 7 7 7 7 7 7 7 7 7 7 7 7
9 8 8 9 9 10 10 10 9 9 9 9 9 8 7 7 7 7 8 8 8 8 8 8 8 8 7 7 7 7 7 7 7 6 6 7 7 7 6 7 7 6 6
9 9 9 9 9 10 10 10 9 9 9 9 9 8 7 7 7 7 7 7 8 8 8 8 8 8 8 8 8 7 7 7 7 7 6 6 6 6 7 7 7 6 6
9 9 9 9 10 10 10 9 9 8 8 9 9 8 8 7 7 7 7 7 7 7 8 7 7 8 8 7 7 7 7 7 7 7 7 7 7 6 6 6 6 6 6
9 9 9 10 10 10 9 9 8 8 8 9 9 9 8 8 8 8 7 7 7 7 7 7 7 7 7 7 7 7 7 7 7 7 6 6 7 6 6 6 6 6 6
9 9 9 10 10 10 9 9 9 8 9 9 9 9 9 8 8 7 7 7 7 7 6 7 7 7 7 7 7 7 7 7 7 7 7 7 7 7 7 7 7 7 6
10 10 10 10 10 10 9 9 9 9 9 9 9 9 9 9 8 8 7 7 7 6 6 6 6 6 6 6 6 6 6 7 7 7 7 7 6 6 6 6 6 6 7
10 11 11 10 10 10 10 9 9 9 9 9 9 9 9 8 8 8 7 7 7 7 6 6 6 5 6 6 6 6 6 6 6 6 6 6 6 6 6 6 6 6 6
11 11 11 11 10 10 10 10 9 9 9 9 9 9 9 9 8 8 8 7 7 7 7 6 6 6 5 5 5 6 6 5 5 5 5 6 6 6 6 6 6 6 6
11 11 11 11 10 10 10 10 9 9 9 9 9 9 8 8 8 8 7 7 7 7 7 6 6 6 6 5 5 4 4 5 5 5 5 5 5 5 5 5 5 6 6
11 11 11 11 11 10 10 10 10 10 10 9 9 9 9 8 8 8 8 7 7 7 7 7 6 5 5 5 5 5 5 5 4 4 5 5 5 5 5 5 5 5 5
12 11 11 11 11 11 11 10 10 10 10 10 9 9 9 9 8 8 8 7 7 7 6 6 6 5 5 5 5 5 5 5 5 4 4 4 4 4 4 4 4 4 4
12 12 12 12 11 11 11 11 11 11 10 10 10 10 9 9 9 8 8 7 7 7 6 6 6 6 5 5 5 5 5 5 4 4 4 4 4 4 4 4 4 3 3
12 12 12 12 12 11 11 11 11 11 11 10 10 10 10 9 9 9 8 7 7 7 6 6 6 6 5 5 5 5 5 5 4 3 3 4 4 4 4 4 4 3 3
13 12 12 12 12 12 11 11 11 11 11 11 10 10 10 10 8 8 8 8 7 7 7 6 6 5 5 5 5 4 4 5 5 4 4 4 3 3 3 3 4 4 4
13 13 13 13 12 12 12 11 11 11 11 11 11 11 10 9 7 8 8 7 7 7 6 6 6 6 5 5 5 5 5 5 4 4 3 3 3 3 3 3 3 3 3
14 13 13 13 13 12 12 12 12 12 12 11 11 11 11 10 8 8 8 8 7 7 7 6 5 5 5 5 5 5 5 5 4 4 4 3 3 3 3 3 3 4 3
14 14 13 13 13 13 12 12 12 12 12 11 11 11 11 10 10 9 8 9 8 8 7 6 5 5 6 5 5 5 4 4 4 4 3 3 3 2 2 3 3 3 3
15 15 14 13 14 13 13 12 12 12 12 12 12 12 11 10 9 9 9 9 9 8 7 6 6 6 5 5 4 4 4 3 3 3 3 3 3 3 3 3 3 3 2
15 15 15 14 14 14 13 13 13 12 12 12 12 12 11 11 10 10 9 9 9 8 7 6 6 6 5 4 4 4 4 3 3 3 3 3 3 3 3 3 2 2 2
15 15 15 14 14 14 14 13 13 12 12 13 12 12 12 11 11 10 9 9 9 8 7 6 6 6 5 4 4 4 3 3 3 3 3 3 3 3 3 2 2 1 1
15 15 15 15 14 14 14 13 13 13 13 13 13 12 11 11 10 10 9 9 9 8 7 6 7 7 4 4 4 3 3 3 3 3 3 3 3 3 3 2 2 2 2

GFSMA_700_temp_024.txt.gz
Temp
8 8 8 8 8 8 8 8 8 8 8 8 6 7 4 5 5 4 7 8 8 8 8 8 8 8 8 8 8 8 8 8 8 7 7 7 7 7 7 7 7 7 7
9 9 8 8 8 8 8 8 8 8 8 6 7 7 5 4 8 8 6 8 8 8 8 8 8 8 8 8 8 8 8 8 8 7 7 7 7 7 7 7 7 7 7
9 9 9 9 8 8 8 8 8 7 9 8 8 7 4 6 6 8 5 4 8 8 8 8 8 8 8 8 8 8 8 8 8 8 8 7 7 7 7 7 7 7 7
9 9 8 8 9 9 8 8 8 8 9 8 8 8 4 4 8 8 6 5 6 7 8 8 8 8 8 8 8 8 7 7 8 7 7 7 7 7 7 7 7 7 7
9 9 9 8 9 9 9 9 8 9 9 9 9 8 6 7 7 5 8 8 8 5 5 8 8 8 8 8 8 7 7 7 7 7 7 7 7 7 7 7 7 7 7
9 9 9 9 9 9 9 8 8 9 9 9 8 8 7 7 8 5 5 5 9 8 6 8 8 8 8 8 8 8 8 7 7 7 7 7 7 7 7 7 7 6 6
9 9 9 9 9 9 9 8 8 9 9 9 9 8 8 8 7 7 4 5 8 8 9 9 8 7 8 8 8 8 8 8 8 7 7 7 7 7 7 7 6 6 6
10 9 9 9 9 9 9 9 8 8 9 9 8 6 5 6 7 6 7 7 7 8 8 8 8 8 8 8 8 8 8 8 8 8 8 8 7 7 7 7 7 7 6
10 10 10 10 10 10 9 9 8 8 9 9 9 7 5 6 5 7 7 7 7 7 7 7 8 8 8 8 8 8 8 7 7 7 7 7 7 7 7 7 7 7 7
10 10 10 10 10 10 10 9 9 9 9 9 9 9 9 8 5 6 7 7 7 7 7 7 8 8 7 7 7 8 8 7 7 7 7 7 7 7 7 7 7 7 7
10 10 10 10 10 10 10 10 9 9 9 9 9 9 9 9 8 8 6 5 7 7 7 8 8 7 7 7 7 7 7 7 7 6 7 7 6 6 6 6 6 6 6
11 10 11 11 11 10 10 10 10 10 10 9 9 9 9 9 9 8 8 7 6 5 7 6 7 7 7 6 6 6 6 6 6 7 7 7 7 6 6 6 6 6 6
11 11 11 11 11 10 10 10 10 10 10 10 10 10 9 9 9 9 8 8 7 7 7 7 7 7 6 6 6 6 6 6 6 6 6 6 6 6 6 6 6 6 6
11 11 11 11 11 11 10 10 10 10 10 10 10 10 10 9 9 9 9 8 8 8 7 6 7 6 7 7 7 6 7 6 5 5 5 5 5 5 5 5 5 6 6
12 11 12 12 11 11 11 10 10 10 10 10 10 10 10 9 9 9 9 9 8 7 5 7 7 7 7 7 7 6 6 5 5 5 5 5 5 4 4 4 5 5 5
12 12 12 12 12 11 11 11 11 10 10 10 10 10 10 10 10 9 8 8 8 8 7 7 7 7 6 6 6 6 5 5 5 5 4 4 4 4 4 5 5 4 4
12 12 12 12 12 11 11 11 11 11 11 11 11 11 10 9 9 9 9 8 8 8 7 7 6 6 6 6 6 6 6 5 5 5 4 4 5 4 4 4 4 4 4
13 12 12 12 12 12 12 11 11 11 11 11 11 11 10 10 9 9 9 8 8 8 8 8 7 7 6 6 6 6 6 5 5 4 5 4 4 4 5 5 4 4 4
13 13 13 13 13 13 12 12 12 12 11 11 11 11 11 10 10 10 9 9 8 8 8 8 8 7 6 6 6 5 5 5 5 5 5 5 5 4 4 4 4 4 3
12 13 13 13 13 13 13 12 12 12 12 11 11 11 11 11 10 10 9 9 8 8 8 8 7 6 6 6 6 5 5 4 5 5 4 4 4 4 4 4 4 4 3
13 13 13 13 13 13 13 13 12 12 12 12 11 11 12 11 10 9 9 9 8 8 8 8 7 7 6 6 6 6 5 5 4 5 5 4 4 4 4 4 4 4 4
14 13 14 14 14 14 14 14 13 13 12 12 12 12 12 12 11 11 10 10 9 8 8 8 8 7 6 6 6 5 5 5 5 3 4 4 4 4 4 1 2 3 3
14 14 15 15 15 14 14 14 14 13 13 13 12 12 12 12 11 11 11 10 9 9 8 8 8 7 6 6 5 5 5 5 5 4 4 4 4 4 4 3 4 3 3
15 15 15 15 15 15 15 14 14 13 13 13 12 12 12 11 11 11 11 10 10 10 9 8 8 7 7 6 5 5 5 5 5 5 4 4 4 4 4 3 4 4 3
16 16 16 15 15 15 15 14 14 13 13 13 12 12 12 12 12 11 11 11 10 9 9 8 8 7 6 6 6 5 5 5 4 4 4 4 4 4 4 3 3 4 3
16 16 16 16 15 15 15 15 14 14 13 13 13 13 13 12 12 11 11 10 10 9 9 9 8 7 6 6 6 6 4 4 4 4 4 4 3 3 3 3 3 3 3

GFSMA_700_temp_027.txt.gz
Temp
9 8 9 8 7 8 9 8 8 9 9 8 8 6 5 6 6 6 8 9 8 8 8 8 8 8 8 8 8 9 8 8 8 8 8 8 8 7 7 7 7 7 7
9 8 8 8 8 9 9 8 8 7 7 7 7 6 5 5 7 6 7 8 9 8 8 8 8 8 8 9 8 9 9 9 8 8 8 7 8 7 7 7 7 7 7
9 8 9 8 8 8 8 9 9 7 7 6 8 6 6 5 5 6 6 7 8 8 8 9 8 8 8 9 9 9 9 9 9 8 8 8 7 7 7 7 7 7 7
9 9 9 8 8 8 8 8 9 8 6 5 6 5 5 5 6 6 6 7 7 7 8 8 8 8 8 8 8 8 8 8 8 8 8 7 8 8 8 7 7 7 7
10 9 9 8 8 9 8 9 9 8 7 6 5 5 5 5 6 6 7 5 6 7 7 8 8 8 8 8 8 8 8 8 8 8 7 7 7 7 7 7 7 7 7
10 10 9 8 8 8 9 8 8 9 9 8 6 5 5 5 5 5 5 5 7 6 7 7 8 8 8 8 8 8 8 8 8 8 8 7 7 7 7 7 7 7 7
10 10 10 9 9 10 9 9 9 9 9 9 6 5 7 8 5 5 5 5 8 6 7 9 9 9 8 8 8 8 8 7 7 7 7 7 7 7 7 7 7 6 6
10 10 10 9 9 10 9 9 8 8 9 9 6 6 6 6 5 5 6 8 7 7 9 9 8 8 7 9 8 8 8 8 7 7 7 7 7 7 7 7 7 6 6
11 11 10 10 10 10 9 9 8 8 7 9 9 7 6 6 6 6 8 7 8 8 8 8 8 8 8 8 9 8 8 8 8 7 7 7 7 7 7 7 7 7 7
10 11 11 10 10 10 10 9 9 10 9 9 9 9 9 8 7 7 6 6 7 7 7 5 8 8 8 8 8 8 8 8 7 7 7 7 7 6 7 7 7 7 7
11 11 11 11 11 10 10 10 10 10 10 10 9 9 9 9 7 7 6 6 8 7 8 7 4 5 7 7 8 8 8 8 7 7 7 7 6 6 6 6 6 6 6
12 12 11 11 11 11 10 10 10 10 10 10 10 10 10 10 9 9 6 6 6 6 7 7 8 8 7 8 8 8 8 7 7 7 6 6 6 6 6 6 6 6 6
12 12 12 12 11 11 11 11 10 10 10 10 10 10 10 10 9 9 8 7 6 6 7 6 5 7 7 7 7 7 7 7 6 6 6 6 5 6 5 6 6 6 6
12 12 12 12 12 11 11 11 11 11 10 10 10 10 10 10 9 9 9 9 6 6 6 6 5 6 7 7 7 7 7 6 6 6 6 6 6 5 6 5 6 6 6
12 12 12 12 12 12 11 11 11 11 11 11 11 10 10 10 9 9 9 9 8 7 6 7 7 8 7 7 7 6 6 6 6 6 5 5 5 5 5 5 5 6 5
13 12 13 12 13 13 12 11 11 11 11 11 11 11 10 10 10 9 9 9 9 8 8 5 7 6 7 6 7 6 6 6 6 6 6 5 5 5 5 5 5 5 5
13 13 13 13 13 13 12 12 12 11 11 11 11 11 10 10 10 10 9 9 9 8 8 7 7 8 7 7 6 6 6 6 6 7 6 6 5 5 5 5 5 5 5
13 13 13 13 13 13 13 12 12 12 12 12 12 11 11 10 10 10 10 10 9 9 8 8 7 7 8 8 7 6 6 6 4 6 6 5 6 5 5 5 5 5 4
13 13 13 13 13 13 13 13 12 12 12 12 12 12 11 11 11 11 10 10 10 9 9 8 8 8 8 8 7 7 7 7 5 5 5 6 5 5 4 5 5 5 5
13 13 13 13 13 13 14 14 14 13 13 13 13 13 12 12 11 11 11 10 10 10 9 9 9 8 7 7 7 6 7 7 5 4 4 3 6 5 5 6 6 5 5
14 13 13 13 13 13 14 14 14 13 13 13 13 13 12 12 12 11 11 11 10 10 9 9 9 8 7 5 5 5 5 4 4 4 4 5 4 4 4 5 4 4 5
15 14 14 15 14 14 14 14 14 14 14 13 12 12 12 12 12 11 11 11 11 11 10 9 8 9 8 8 7 7 5 5 5 4 5 5 5 4 3 3 4 5 4
15 15 15 15 15 15 15 15 15 14 14 14 13 13 12 12 12 12 12 11 12 11 11 9 9 8 8 8 8 7 6 6 5 5 5 5 5 5 5 5 5 5 4
16 16 16 15 15 16 15 15 15 15 14 14 14 13 13 12 12 12 12 11 11 11 11 10 9 9 9 8 8 7 6 6 5 5 6 6 6 5 5 5 5 5 5
17 16 16 16 16 16 16 15 15 15 15 14 14 14 13 13 13 13 12 12 11 12 11 10 9 9 9 9 8 7 7 6 6 6 5 5 6 5 5 5 4 5 5
17 16 16 17 17 17 16 16 15 15 15 15 15 15 14 14 13 13 12 12 12 12 11 11 9 9 9 9 9 8 7 6 6 5 5 5 5 4 5 5 4 5 5

GFSMA_700_temp_030.txt.gz
Temp
8 8 8 8 9 8 9 7 7 9 9 7 7 7 6 6 6 7 6 8 8 8 8 8 8 8 8 8 8 8 8 8 8 8 8 8 7 8 7 7 7 7 7
9 9 9 9 9 8 8 8 8 8 8 8 8 6 6 7 6 8 7 7 8 8 8 8 8 8 8 8 8 8 8 8 8 7 7 7 7 7 7 7 7 7 7
10 9 10 10 8 8 8 9 9 7 8 7 6 5 5 7 7 6 6 6 7 8 8 8 7 8 8 8 8 8 8 8 8 8 8 8 8 8 7 7 7 7 7
10 10 9 10 9 9 10 10 9 8 7 7 6 6 6 5 6 6 6 8 7 6 8 8 8 7 7 7 8 8 8 8 8 8 8 7 7 7 8 7 7 7 7
10 10 10 10 9 8 9 9 9 8 7 6 6 6 5 6 6 6 6 6 7 6 6 8 8 8 7 8 8 8 8 8 8 7 7 7 7 7 7 7 7 7 7
10 10 10 9 10 9 9 9 9 9 9 8 6 7 6 6 5 6 5 5 7 6 6 8 7 8 8 8 8 8 8 8 8 7 7 7 7 7 7 7 7 7 7
11 11 10 9 10 10 9 9 9 9 9 8 6 7 6 7 6 6 6 6 6 6 7 8 9 8 9 8 8 8 8 8 8 8 7 7 7 7 7 7 7 7 6
11 11 11 11 11 10 10 9 9 9 9 9 7 6 6 6 6 6 7 8 7 7 7 8 9 9 9 8 9 8 8 8 8 8 8 7 7 7 7 7 7 7 7
11 11 11 10 11 10 10 9 9 10 10 9 8 7 7 6 6 6 6 7 7 9 8 8 8 9 10 9 9 9 8 8 8 8 8 8 7 7 7 7 7 7 7
11 12 11 11 11 11 10 10 10 10 10 10 9 9 8 7 7 7 7 7 7 8 8 9 8 7 9 9 9 8 8 8 8 8 8 8 7 7 7 7 7 7 7
12 12 12 11 11 11 11 10 10 10 10 10 10 9 9 8 7 7 7 7 8 7 6 5 7 8 8 9 8 8 8 8 8 8 8 8 7 7 7 7 6 7 6
12 12 12 11 11 11 11 11 11 11 10 10 10 10 9 8 8 8 7 7 7 6 7 8 7 7 8 8 8 7 7 7 7 8 8 7 7 7 7 6 6 6 6
13 12 12 12 12 12 11 11 11 11 11 11 11 10 10 10 9 9 8 6 6 7 7 7 7 7 7 8 8 7 7 7 7 7 7 7 7 6 6 6 6 6 6
13 13 13 13 12 12 12 11 11 11 11 11 11 10 10 10 10 9 9 9 8 6 6 6 7 7 8 7 7 7 7 7 6 6 6 6 6 6 6 6 6 6 6
13 13 13 13 13 13 12 11 11 11 11 11 11 11 10 10 10 10 9 9 8 8 7 6 6 8 7 8 7 7 7 7 6 6 6 6 6 5 6 6 5 6 6
13 13 14 13 13 13 13 12 11 11 11 11 11 11 11 11 11 10 10 10 9 8 8 8 8 9 7 8 8 7 7 7 6 6 6 6 5 5 5 5 5 5 5
13 13 13 13 13 13 13 13 12 12 12 12 12 12 11 11 11 11 10 10 10 9 9 8 8 9 8 8 8 8 7 7 6 6 7 6 5 5 5 5 5 5 5
13 13 13 14 13 14 14 13 13 12 12 12 12 12 12 11 11 11 11 11 10 10 10 9 8 9 9 8 8 8 7 7 7 8 6 6 5 5 5 5 5 5 5
14 14 14 14 14 13 13 13 13 13 12 12 12 12 12 12 11 11 11 11 11 10 10 10 9 9 9 9 9 9 8 7 6 6 6 5 5 5 5 5 5 6 6
14 14 14 14 14 14 13 14 14 13 13 13 12 12 12 12 12 11 11 11 11 11 10 10 10 9 9 9 9 9 9 8 7 6 6 5 5 5 6 6 5 6 6
15 15 15 15 14 14 14 14 14 14 14 14 13 13 13 13 12 12 12 12 11 11 11 11 11 10 9 8 9 9 8 8 7 6 5 5 5 4 5 6 6 6 5
15 15 15 15 15 15 15 14 14 15 14 14 14 13 13 13 13 13 12 12 11 11 11 11 11 11 10 9 9 8 8 7 7 7 6 6 5 5 5 4 5 5 5
16 16 16 16 16 16 16 15 14 14 15 15 14 14 14 14 14 14 13 13 12 12 12 12 11 11 10 10 9 9 8 7 7 7 6 6 6 6 5 6 5 6 6
17 16 16 16 16 17 16 16 15 14 14 15 15 15 15 14 14 14 13 13 13 12 12 12 12 10 9 9 9 9 9 8 8 8 7 7 5 6 6 6 6 6 6
17 17 16 16 17 17 16 16 15 15 15 15 15 15 15 15 15 14 14 14 13 13 12 12 11 11 11 9 9 9 9 9 9 9 8 8 7 6 6 6 6 6 6
17 17 17 16 17 17 16 16 16 15 15 15 15 16 16 16 15 14 15 14 14 13 12 12 11 11 10 10 9 9 8 8 8 8 8 8 8 7 6 6 6 6 6

GFSMA_700_temp_033.txt.gz
Temp
10 9 10 8 8 8 8 8 9 8 6 6 6 6 5 5 5 6 7 8 7 7 8 8 8 8 8 8 8 8 8 8 8 8 8 8 8 8 7 7 7 7 7
10 9 9 8 9 9 9 9 9 8 6 7 7 5 5 5 5 5 6 7 8 7 8 8 8 8 8 8 8 9 9 9 9 8 8 8 8 8 7 7 7 7 7
9 8 9 9 9 10 10 9 8 7 6 6 6 5 5 6 6 6 6 6 7 8 8 8 8 8 8 8 8 8 8 8 8 8 8 7 7 7 7 7 7 7 7
9 10 9 9 9 9 10 9 7 7 7 6 6 6 5 5 6 6 6 6 6 7 8 8 8 8 8 8 8 8 8 8 8 8 7 7 7 7 7 7 7 7 7
9 9 9 10 9 8 9 9 8 8 8 6 6 6 5 6 5 6 6 7 7 7 7 8 9 8 8 8 8 8 8 7 7 7 7 7 7 7 7 7 7 6 6
10 10 9 9 9 10 9 9 8 8 8 8 6 6 5 5 6 5 5 7 6 5 8 9 9 8 9 8 8 8 8 7 7 7 7 7 7 7 7 7 7 6 6
10 10 10 9 9 9 9 9 8 8 9 8 6 6 7 6 5 6 6 7 8 8 8 9 9 9 8 8 8 8 8 8 8 8 8 8 7 7 7 7 7 7 7
10 10 10 10 10 10 10 9 9 9 9 7 8 5 6 7 6 6 6 7 8 8 8 8 9 8 8 8 9 8 8 8 8 8 8 8 7 7 7 7 7 7 7
11 11 10 10 10 10 10 10 10 10 10 9 9 8 7 7 6 6 6 6 7 8 8 8 8 8 8 8 8 9 9 9 8 8 8 8 8 7 7 7 7 7 7
11 11 11 11 11 11 10 10 10 10 10 10 10 9 9 8 7 7 7 7 7 7 8 8 8 8 8 8 8 8 8 9 9 8 8 8 7 7 7 7 7 7 7
12 12 11 11 11 11 11 10 11 11 10 10 11 10 10 9 9 8 7 6 7 7 8 8 8 8 8 8 8 8 8 8 8 8 8 8 7 7 7 7 7 7 7
12 12 12 11 11 12 11 11 11 11 10 10 10 11 10 10 9 9 8 8 7 8 7 7 7 8 8 8 8 7 8 7 7 7 7 7 7 6 6 7 7 6 6
12 12 12 12 11 12 11 11 11 11 11 11 10 10 10 10 10 10 9 9 9 9 8 8 8 8 8 7 7 7 7 7 7 6 6 6 6 6 6 6 6 6 6
13 12 12 12 12 12 12 11 11 11 11 11 11 10 10 10 10 10 9 9 9 9 8 9 8 8 8 7 7 7 7 7 7 6 6 6 6 6 6 6 6 6 6
13 13 12 13 12 12 13 12 12 11 11 11 11 11 10 10 10 10 9 10 9 9 9 9 9 8 8 8 8 7 7 7 7 6 6 6 6 6 6 5 5 5 5
13 13 13 13 13 13 12 13 12 11 12 11 11 11 11 11 11 10 10 10 10 9 9 9 9 9 9 9 8 8 8 8 7 7 7 6 6 6 5 5 5 5 5
13 13 14 14 13 13 13 12 13 12 12 12 11 11 11 11 11 11 11 10 10 10 10 10 10 9 10 9 9 9 9 9 8 8 7 7 6 6 6 5 5 5 5
13 13 13 13 13 13 13 13 13 13 12 12 12 12 11 11 11 11 11 11 11 11 10 10 10 10 10 10 10 9 9 9 8 8 8 8 7 6 5 5 5 5 5
14 13 13 14 14 13 13 13 13 13 13 13 12 12 12 12 11 11 11 11 11 11 11 11 10 10 10 10 10 9 9 9 9 9 8 8 8 7 6 5 5 6 6
14 14 14 14 15 15 14 13 13 13 13 13 13 13 13 13 12 12 12 11 11 11 11 11 11 11 11 10 10 10 9 9 9 9 9 9 8 8 8 7 6 6 7
15 15 15 14 15 15 15 14 14 13 14 13 13 14 14 14 14 13 12 12 12 12 11 11 11 11 11 10 10 10 10 10 10 8 8 8 8 8 7 7 6 6 7
16 16 16 16 15 16 15 15 14 14 14 13 14 13 14 14 14 14 13 12 12 12 12 12 12 12 11 10 10 11 10 10 10 8 7 7 7 8 7 7 6 6 7
16 16 16 16 16 16 16 15 14 14 14 14 14 13 13 14 14 14 14 13 13 12 12 12 12 12 11 11 10 10 10 10 9 8 7 7 6 7 8 7 6 6 6
16 16 16 16 16 16 16 15 15 14 15 14 14 14 14 14 14 14 14 14 14 13 13 12 12 11 11 10 10 10 9 9 9 9 8 7 6 6 6 7 6 6 7
17 17 17 17 17 17 16 16 15 15 15 15 15 15 15 14 14 13 14 14 13 14 13 13 12 11 11 10 10 9 9 9 8 9 8 8 6 5 6 6 6 7 7
17 17 17 17 17 17 17 16 16 16 15 15 15 15 15 15 15 14 13 13 14 14 13 13 12 12 11 11 10 9 8 8 8 8 8 7 6 4 5 5 6 6 7

GFSMA_700_temp_036.txt.gz
Temp
10 9 9 9 9 9 9 7 7 6 6 6 5 5 5 6 7 7 7 8 8 8 8 8 8 8 8 8 8 8 8 8 8 8 8 8 7 7 7 7 7 7 7
9 10 9 9 9 9 9 7 7 6 6 6 6 5 7 7 7 8 6 8 8 8 8 8 8 8 8 8 8 8 8 8 8 8 8 8 8 8 8 7 7 7 7
9 10 10 9 9 9 9 8 7 6 6 6 5 6 6 7 7 7 7 8 8 8 8 8 8 8 8 8 8 8 8 8 8 8 8 7 7 7 8 7 7 7 7
10 10 10 9 9 9 8 8 7 7 6 5 5 5 5 6 6 7 7 7 8 8 8 8 8 8 8 8 8 8 8 8 7 8 7 7 7 7 7 7 7 7 7
10 10 10 9 9 9 8 8 8 8 6 6 5 5 5 5 5 7 7 7 7 7 7 8 8 8 8 8 8 8 8 8 7 7 7 7 7 7 7 7 7 7 7
10 10 9 9 9 9 9 8 8 8 7 6 6 6 5 6 6 7 7 7 8 8 8 8 8 8 8 8 8 8 7 8 7 7 7 7 7 7 7 6 7 7 7
10 10 10 9 9 9 9 8 8 8 7 6 6 7 5 6 6 6 6 7 8 8 8 9 9 8 8 8 8 8 8 8 8 8 7 7 7 7 7 7 6 6 6
10 10 10 9 9 10 9 9 9 9 8 8 7 6 7 6 6 6 6 7 8 7 8 8 9 9 9 8 8 8 8 8 8 8 7 7 7 7 7 7 6 7 7
10 10 10 10 9 9 9 9 10 10 9 8 8 7 7 7 7 7 7 7 7 7 8 7 8 8 9 8 8 8 9 8 8 8 7 7 7 7 7 7 7 7 7
10 10 10 10 10 10 10 10 10 10 10 10 9 8 7 7 7 7 7 7 8 7 8 8 8 8 8 8 8 8 8 8 8 8 8 8 7 7 7 7 7 7 6
11 11 11 11 10 10 10 10 10 11 11 10 10 10 9 8 8 7 8 8 8 7 7 8 8 8 8 8 8 8 8 8 8 8 8 8 8 7 6 6 6 6 6
11 11 11 11 11 11 11 11 10 11 11 11 10 10 10 9 9 8 8 8 8 8 8 8 8 8 8 8 8 8 8 8 8 7 7 7 7 7 7 6 6 6 6
12 12 11 11 11 11 11 11 11 11 11 11 11 10 10 10 10 9 9 9 9 9 9 9 9 8 8 8 8 8 8 7 7 7 7 7 7 7 7 6 6 6 6
12 12 12 11 11 12 11 11 11 11 11 11 11 10 10 10 10 10 10 10 10 10 10 10 10 9 8 9 8 8 8 8 8 7 8 8 7 7 7 6 6 6 5
12 12 12 12 12 12 11 11 11 11 11 11 10 10 10 10 10 10 10 10 10 10 10 10 10 10 9 9 9 9 8 8 8 8 8 8 7 7 7 6 6 6 5
12 12 12 12 12 12 12 12 11 11 11 11 11 11 11 11 11 11 11 11 11 11 10 10 10 10 9 9 9 9 9 9 9 9 8 8 8 8 7 7 6 6 6
13 12 12 12 12 12 12 12 12 11 12 11 11 11 11 11 11 11 11 11 10 11 11 11 11 10 10 9 9 9 9 9 9 8 8 8 7 7 7 7 7 6 6
13 13 12 13 13 12 12 12 12 12 12 12 11 11 11 11 11 11 11 11 11 11 11 11 11 11 11 10 10 10 10 10 9 9 9 8 7 7 7 8 7 6 6
13 13 13 13 13 13 12 12 12 12 12 12 12 12 11 11 12 12 12 12 11 11 11 11 11 11 11 11 11 11 10 10 9 9 9 8 8 8 7 6 7 7 6
14 14 14 13 14 13 13 13 12 12 12 12 12 12 12 12 12 12 12 11 11 11 11 11 11 11 11 11 11 11 10 10 10 10 9 9 8 8 8 7 7 7 7
14 14 14 15 15 15 14 14 13 13 12 12 12 12 13 13 12 12 12 12 11 11 11 11 11 11 11 11 11 10 10 9 10 10 9 10 9 8 7 6 7 7 7
15 15 15 15 16 16 15 15 14 14 13 12 12 12 12 13 13 13 12 12 12 12 12 12 12 12 11 11 10 10 10 10 10 9 9 9 9 8 7 7 7 7 6
16 16 16 15 16 16 15 15 14 14 14 13 13 13 13 13 12 13 13 13 12 12 12 12 12 12 12 12 11 10 10 9 9 9 8 10 9 9 8 7 6 5 6
16 16 16 16 16 16 15 15 14 14 14 14 14 14 14 14 14 13 13 13 12 12 12 12 12 13 13 12 11 10 9 9 10 10 10 9 9 8 7 6 5 5 6
16 16 16 16 16 16 15 15 14 14 15 15 15 15 15 15 15 14 14 14 14 14 13 12 12 12 12 11 11 11 11 10 11 11 11 9 9 8 7 6 5 4 5
16 16 16 16 16 16 16 16 15 15 15 15 15 16 16 16 16 15 15 15 15 15 14 14 13 12 12 11 11 10 10 11 10 10 10 10 9 8 6 6 6 5 5

GFSMA_700_temp_042.txt.gz
Temp
8 7 7 7 7 7 8 7 6 6 5 5 6 5 6 6 7 8 8 8 8 8 8 8 8 8 8 8 8 8 8 8 8 8 7 7 7 7 7 7 7 7 7
8 8 8 8 8 8 7 7 6 6 5 5 5 6 6 6 7 7 8 8 8 8 8 8 8 8 8 8 8 8 8 8 8 8 7 7 7 7 7 7 7 7 7
8 8 8 8 8 8 7 7 6 6 5 4 6 7 6 6 7 7 8 7 8 8 8 8 8 8 8 8 8 8 8 8 8 8 8 7 7 7 7 7 7 7 6
8 9 8 8 8 7 7 6 6 5 4 5 5 6 6 7 7 7 7 7 8 8 8 8 8 8 8 8 8 8 8 8 8 7 7 7 7 7 7 7 7 7 6
9 8 8 8 8 7 7 6 7 5 5 4 5 5 6 7 6 7 7 7 8 8 8 8 8 8 8 8 8 8 8 8 8 7 8 8 7 7 7 7 7 7 7
9 9 8 8 8 7 7 7 7 6 6 5 5 4 6 6 6 6 7 8 8 8 9 9 9 8 8 8 8 8 8 8 8 8 7 7 7 7 7 7 7 7 7
10 9 8 8 7 8 7 7 7 7 6 6 5 6 6 6 7 7 7 8 8 8 9 9 9 9 9 8 8 8 8 8 8 8 8 8 8 8 7 7 7 7 7
10 10 9 9 8 8 8 8 8 7 7 7 6 6 6 6 7 7 8 8 8 8 9 9 9 9 9 9 9 9 9 9 9 9 9 8 8 8 8 8 8 8 7
10 10 9 9 9 8 8 9 8 8 7 7 7 7 7 7 7 7 7 8 8 8 8 9 9 9 9 9 9 9 9 9 9 9 9 9 9 8 8 8 8 7 7
10 10 10 9 9 9 9 9 9 9 8 7 8 8 7 8 7 8 8 8 8 9 9 9 9 9 9 9 9 9 9 8 8 9 9 9 8 8 8 7 7 7 7
10 10 10 9 9 9 9 9 9 9 9 9 9 8 8 8 8 8 8 7 8 8 9 9 9 9 9 9 9 8 9 9 9 8 8 8 8 8 7 7 7 7 7
10 10 10 10 10 10 9 10 10 10 10 10 10 9 9 8 8 8 8 8 8 8 9 9 9 9 9 9 9 9 9 9 9 9 8 8 8 8 8 8 7 7 6
11 10 10 10 10 10 10 10 10 10 10 10 10 10 9 9 9 9 9 9 9 9 9 9 10 10 10 10 10 10 9 9 9 9 9 9 8 8 8 7 7 7 7
10 10 10 10 10 10 10 10 10 11 11 11 10 10 10 10 9 9 9 9 9 9 9 9 9 10 10 10 10 10 10 10 10 10 10 10 9 9 8 8 7 7 7
10 10 10 11 10 10 11 11 11 11 11 11 11 10 10 10 10 10 10 10 10 10 10 10 10 10 10 10 10 11 11 11 11 11 11 11 10 10 9 9 9 8 8
11 10 11 11 11 11 11 11 11 11 11 11 11 11 11 10 11 11 11 10 11 10 11 11 11 11 11 11 11 11 11 11 11 11 11 11 11 10 10 10 9 9 8
11 11 11 11 11 11 11 11 11 11 11 11 11 11 11 11 11 11 11 11 11 11 11 11 11 11 11 11 11 11 11 11 11 11 11 10 11 11 10 10 9 9 8
11 11 11 11 11 11 11 11 11 11 11 11 11 11 11 11 11 11 11 11 11 11 11 11 11 11 11 11 11 11 11 11 10 10 10 10 10 10 10 10 10 9 8
11 11 11 12 12 12 12 12 11 12 12 11 11 11 11 11 11 11 11 11 11 11 11 12 12 11 11 11 11 11 11 11 10 10 10 10 10 9 9 9 9 9 9
12 12 12 12 12 12 12 12 12 12 12 12 12 12 12 12 12 11 11 12 12 12 12 12 12 12 12 12 12 12 11 11 11 10 10 10 10 10 9 9 8 8 8
12 12 12 12 12 12 12 12 12 12 12 12 12 12 12 12 12 12 12 12 12 12 12 13 13 13 13 13 12 12 12 11 12 11 10 10 9 9 9 9 8 8 7
13 13 13 13 13 13 12 12 12 12 12 12 12 12 12 12 12 12 12 13 13 13 12 13 13 13 13 13 12 12 12 12 13 12 11 11 10 10 9 8 8 7 7
13 13 13 13 14 13 13 13 13 13 13 13 13 13 13 12 12 12 12 12 12 12 12 12 13 13 13 12 12 12 11 11 12 11 11 11 10 10 10 9 8 7 7
14 14 14 14 14 14 14 14 14 14 14 14 14 13 13 13 13 13 13 13 13 13 12 12 13 13 13 13 13 13 12 12 13 12 11 11 11 11 10 9 9 8 7
15 15 14 14 15 15 14 14 14 14 14 15 14 14 14 14 14 13 13 14 14 14 13 13 13 13 13 13 12 12 14 13 14 14 13 13 12 11 10 10 10 9 8
14 14 14 14 14 14 14 14 14 14 15 15 15 15 15 15 14 14 14 15 15 15 14 14 14 14 14 14 13 12 11 10 10 11 12 10 11 10 10 11 11 10 9

GFSMA_700_temp_045.txt.gz
Temp
7 7 8 7 8 7 7 6 6 5 6 6 6 6 6 7 7 7 8 8 8 8 8 8 8 8 9 8 8 8 8 8 8 8 7 7 7 7 8 8 7 7 7
7 7 7 8 8 7 7 6 6 5 5 6 6 6 6 7 7 8 8 8 8 8 8 8 8 8 8 9 9 8 8 8 8 8 8 7 7 7 7 7 7 7 7
8 8 8 7 8 7 7 6 6 6 5 6 7 7 7 7 7 8 8 8 8 8 8 8 8 8 8 8 8 8 8 8 8 8 8 8 7 7 7 7 7 7 7
8 8 8 8 8 7 7 6 5 5 5 5 7 7 7 7 7 8 8 8 8 8 8 8 8 8 8 8 8 8 8 8 8 8 8 7 7 7 7 7 7 7 7
8 8 8 8 8 7 7 6 6 5 5 5 6 6 7 7 7 8 8 9 9 9 8 9 8 8 8 8 8 8 8 8 8 8 8 8 7 7 7 7 7 7 7
9 9 8 8 8 7 7 6 6 6 5 5 5 5 7 7 7 8 9 9 9 9 9 9 9 9 8 8 8 8 8 8 8 8 8 8 8 7 7 8 7 7 7
9 9 8 8 8 7 7 7 7 6 6 5 5 6 6 7 8 8 9 9 9 9 9 10 9 9 9 9 9 9 9 9 9 9 8 8 8 8 8 8 8 7 7
9 9 9 9 8 8 8 7 8 7 7 7 6 6 7 7 7 8 8 8 9 9 9 9 9 9 9 9 9 9 9 9 9 9 9 9 8 8 8 8 8 7 7
9 9 9 9 9 9 8 8 8 8 7 7 7 6 6 6 6 7 8 8 8 9 9 9 9 9 9 9 9 9 9 9 9 9 9 9 9 8 8 8 7 7 7
9 9 9 9 9 9 9 9 9 8 8 7 7 7 7 6 7 7 7 8 8 8 8 8 9 9 9 9 9 9 9 9 9 9 9 8 8 8 8 8 7 7 7
9 9 9 9 9 10 9 9 9 9 9 8 8 7 7 7 7 7 7 8 8 8 9 9 9 10 10 10 10 10 10 10 10 10 9 9 9 9 8 8 7 7 7
10 10 10 10 10 10 10 10 10 10 9 9 9 8 8 8 8 8 8 8 8 9 9 9 10 10 10 10 10 10 10 10 10 10 10 10 9 9 9 9 8 7 7
10 10 10 10 10 10 10 10 10 10 10 10 9 9 9 9 9 8 8 8 8 9 9 10 10 10 10 10 11 11 11 11 11 11 11 11 11 11 10 10 9 9 8
10 10 10 10 10 10 11 11 11 11 10 10 10 10 9 9 9 9 9 9 9 9 10 10 10 10 10 11 11 11 11 11 11 11 11 11 11 11 11 11 10 10 9
10 10 10 10 10 11 11 11 11 11 11 10 10 10 10 10 10 10 10 10 10 10 10 10 10 11 11 11 11 11 11 11 11 11 11 11 11 11 11 10 10 10 9
10 10 10 10 11 11 11 11 11 11 11 11 11 11 10 10 10 10 10 10 11 10 10 10 10 11 11 11 11 11 11 11 11 11 11 11 11 11 11 11 10 10 10
11 10 11 11 11 11 11 12 11 11 11 11 11 11 11 11 11 11 11 11 11 11 11 11 11 11 11 11 11 11 11 11 11 11 11 11 11 10 10 10 10 10 10
11 11 11 11 11 11 12 12 12 12 12 11 11 11 11 11 11 11 11 11 11 11 12 12 11 12 12 11 11 11 11 11 11 11 10 10 10 10 10 10 10 10 9
11 11 11 12 11 11 12 12 12 12 12 12 12 12 11 11 12 12 12 12 12 12 12 13 13 12 12 12 12 12 12 12 12 11 11 11 10 10 10 10 10 9 9
12 12 12 12 12 11 12 12 12 12 12 12 12 12 12 12 12 12 12 12 12 12 12 13 13 13 13 13 13 13 13 13 13 12 12 12 11 11 10 10 10 9 9
12 12 12 12 12 12 12 12 12 12 12 12 12 12 12 12 12 12 13 13 13 13 13 13 14 14 14 14 14 13 13 13 13 12 12 11 11 11 11 10 10 10 10
12 12 12 12 12 12 12 12 12 12 12 12 12 12 12 12 13 13 13 13 13 13 14 14 14 14 13 13 12 12 12 12 13 12 12 13 12 12 11 10 10 9 9
13 13 13 12 12 12 12 12 12 12 12 13 13 13 13 13 13 13 13 13 13 13 13 13 14 13 13 13 13 13 13 14 14 13 12 14 13 14 13 12 11 10 9
13 13 13 13 13 13 13 13 13 13 13 13 13 13 13 13 13 13 13 13 13 13 13 13 13 14 14 14 14 14 14 14 15 15 13 15 13 13 12 12 12 11 10
13 13 13 13 13 13 13 13 13 13 14 14 14 14 14 14 14 13 13 14 14 14 14 14 13 14 14 14 14 14 13 13 15 15 13 12 13 12 12 13 12 12 11
14 13 14 14 14 14 14 14 14 14 14 14 14 14 15 14 14 14 14 14 15 14 14 14 15 15 14 14 13 13 13 12 13 14 13 11 12 11 13 13 12 12 12

GFSMA_700_temp_048.txt.gz
Temp
8 8 8 8 7 7 7 6 6 6 6 7 7 7 8 8 8 8 8 8 9 8 9 9 9 9 9 8 8 8 8 8 8 8 8 8 8 8 8 7 7 7 7
8 8 8 8 8 7 7 7 6 5 5 6 7 7 7 8 8 8 8 8 8 8 8 9 9 9 9 9 9 8 8 8 8 8 8 7 7 7 7 7 7 7 7
8 8 7 8 8 7 7 7 6 6 5 4 5 7 6 7 8 8 8 8 8 8 8 8 8 9 8 8 8 8 8 8 8 8 8 7 7 7 7 7 7 7 7
9 8 8 8 8 7 7 5 5 5 5 4 6 5 5 7 8 8 8 9 9 8 9 9 8 8 8 8 8 8 8 8 8 8 8 8 7 7 7 7 7 7 7
8 9 8 8 8 7 7 5 4 5 4 5 5 4 5 5 8 8 9 9 9 9 9 9 9 9 9 8 9 8 8 8 8 8 8 8 8 7 7 8 8 8 7
9 8 8 8 8 8 7 7 6 6 5 5 5 5 5 6 8 8 8 8 9 9 9 9 9 9 9 9 9 9 9 9 9 9 9 9 9 8 8 8 8 8 8
9 9 9 8 8 8 7 7 7 7 5 6 5 6 7 8 8 8 7 8 9 9 10 10 10 9 10 9 10 10 10 10 10 9 9 9 9 9 9 9 9 8 8
9 9 9 8 8 8 8 8 8 7 6 7 6 5 6 7 5 5 8 8 9 9 10 10 10 10 10 10 10 10 10 10 9 9 9 9 9 9 9 8 8 8 8
9 9 9 9 8 8 8 8 8 8 6 7 7 6 6 6 6 7 8 8 9 9 9 9 9 10 10 10 10 10 10 10 10 9 9 9 9 9 9 8 8 8 7
9 9 9 9 9 9 9 9 9 8 8 7 7 7 7 6 7 7 8 9 9 9 9 9 9 9 10 10 10 10 10 10 10 10 10 10 10 9 9 9 8 8 8
9 9 9 9 9 9 9 9 9 9 8 8 7 8 7 7 7 7 7 7 9 9 9 9 9 10 10 10 10 11 11 11 11 11 11 11 11 10 10 10 10 9 9
10 10 10 10 10 9 10 9 9 9 9 9 9 8 6 7 6 6 6 7 7 9 10 10 10 11 11 11 11 11 11 11 11 12 12 12 11 11 11 11 11 10 9
10 10 10 10 10 10 10 10 9 9 9 9 9 9 9 9 9 9 9 7 9 10 10 10 11 11 11 12 12 12 12 12 12 12 11 11 11 11 11 11 10 10 10
10 11 11 11 10 11 10 10 10 10 10 10 10 10 9 10 10 10 10 10 10 8 10 11 11 11 11 12 12 12 12 12 11 11 11 11 11 11 11 11 11 11 10
11 11 11 11 11 11 11 11 11 11 11 11 10 10 10 10 10 10 10 10 10 11 10 11 12 12 12 12 12 12 12 12 12 12 11 11 11 11 11 11 11 10 10
11 11 11 11 11 11 11 11 11 11 11 11 11 11 10 10 10 11 11 11 11 11 11 11 11 12 12 12 12 12 12 12 12 11 11 11 11 11 11 11 10 10 10
11 12 12 12 12 12 12 11 11 11 11 11 11 11 11 11 11 11 11 11 11 11 11 11 12 12 12 12 12 12 12 12 12 12 11 11 11 11 11 10 10 10 10
11 11 12 12 12 12 12 12 12 11 12 12 12 11 11 11 11 11 11 11 11 12 12 12 12 12 12 12 12 12 12 12 12 12 12 12 11 11 11 11 11 11 10
11 11 12 12 12 12 12 12 12 12 12 12 12 12 12 12 12 12 12 12 12 12 12 13 13 13 13 13 13 13 13 13 13 12 13 12 12 12 11 11 11 11 10
11 12 12 12 12 12 12 12 12 12 12 12 12 12 12 12 12 12 12 12 12 12 13 13 13 13 13 13 14 14 14 13 13 13 12 12 12 12 11 11 10 10 10
12 12 12 12 12 12 12 13 12 12 12 12 12 12 12 12 12 12 12 13 13 13 13 13 14 14 14 14 14 13 13 13 13 12 13 13 13 13 13 14 13 12 11
12 12 12 12 13 13 13 12 12 12 12 12 12 13 13 13 13 13 13 13 13 13 14 14 14 14 14 13 13 13 14 13 15 13 13 14 13 14 13 13 13 13 12
12 13 12 13 13 13 13 12 12 12 12 13 12 13 13 13 13 13 13 13 13 14 14 14 14 14 14 13 14 14 14 15 14 14 13 15 14 14 13 13 13 13 12
13 13 13 13 13 13 13 13 12 12 13 13 13 13 13 13 13 13 13 14 14 14 14 14 14 14 14 14 14 14 15 15 15 14 14 15 14 14 14 14 13 13 12
13 13 14 13 13 13 13 13 13 13 14 14 14 14 14 14 14 14 14 14 14 14 14 14 14 14 14 14 14 14 14 14 15 15 14 13 14 14 14 14 13 13 12
14 14 14 14 13 13 13 13 13 14 14 14 14 14 14 14 14 14 14 14 14 14 14 14 14 15 15 14 14 14 14 14 14 15 14 13 13 13 14 14 13 12 12